Language selection

Features

My Weather Profile Weather Topics  | 

Pacific - North Coast: Past 24 Hour Conditions

 

Sandspit Airport

07:00 AM PST 14 December 2019
Disclaimer

This table is a summary of hourly weather conditions for the past 24 hours.
Please note that these observations might not always be representative of weather conditions over their associated marine area.

Date / Time
(PST)
Wind(knots) Conditions Visibility(km) Pressure(kPa) Air tempC) Relative humidity(%) Dew pointC)
14 December 2019
7:00 W 7 Mist 1 101.7 2 99 2
6:00 W 6 Mist 6 101.6 3 99 3
5:00 W 6 Mist 4 101.6 3 99 2
4:00 W 6 Mostly Cloudy 16 101.6 2 99 2
3:00 WNW 3 Partly Cloudy 16 101.6 3 99 3
2:00 W 5 Mist 1 101.6 2 99 2
1:00 W 7 Clear 16 101.6 3 98 2
0:00 W 6 Light Rain 0.8 101.6 3 99 2
13 December 2019
23:00 WNW 6 Mist 1 101.6 3 98 3
22:00 WSW 5 Mist 2 101.6 3 98 3
21:00 SW 3 Clear 13 101.6 4 98 3
20:00 WSW 2 Partly Cloudy 16 101.6 5 93 4
19:00 WSW 5 Partly Cloudy 16 101.5 4 94 4
18:00 W 6 Mostly Cloudy 16 101.6 5 93 4
17:00 SSW 7 Partly Cloudy 16 101.6 5 86 3
16:00 S 4 Cloudy 16 101.6 6 85 4
15:00 SW 4 Cloudy 16 101.6 7 87 5
14:00 calm Cloudy 16 101.6 6 87 4
13:00 W 3 Mainly Sunny 16 101.6 7 84 4
12:00 NW 3 Partly Cloudy 16 101.6 7 90 5
11:00 SSE 4 Mainly Sunny 16 101.6 5 91 4
10:00 SE 6 Sunny 16 101.6 2 92 1
9:00 SE 4 Sunny 16 101.5 3 94 3
8:00 WSW 5 Clear 16 101.5 4 93 3
7:00 S 4 Mainly Clear 16 101.5 4 93 3

Zoom-in to make a selection

Map of Pacific - North Coast marine weather areas Middle Nomad - 46004 South Nomad - 46036 Dixon Entrance Central - 46145 South Moresby - 46147 Nanakwa Shoal - 46181 North Hecate Strait - 46183 North Nomad - 46184 South Hecate Strait - 46185 West Sea Otter - 46204 West Dixon Entrance - 46205 East Dellwood - 46207 West Moresby - 46208 Sartine Island Cape St.James Kindakun Rocks Langara Island Masset Municipal Airport Rose Spit Sandspit Airport Bella Bella Airport Bella Coola Airport Bonilla Island Cathedral Point Cumshewa Island Grey Islet Holland Rock Lucy Islands Lightstation Prince Rupert Airport
Legend:
buoy Buoy
land station Land Station

Pacific - North Coast Area

Another Region

What we are doing

Date modified: